Weather History for Pensacola, FL

Change the Weather History Date:

Saturday, April 27, 2013

  Actual Average Record
Temperature  
Mean Temperature 70 °F 70 °F  
Max Temperature 79 °F 78 °F 86 °F (1970)
Min Temperature 60 °F 61 °F 47 °F (1992)
Degree Days  
Heating Degree Days 0 1  
Month to date heating degree days 29 51  
Since 1 July heating degree days 1167 1535  
Cooling Degree Days 5 5  
Month to date cooling degree days 88 85  
Year to date cooling degree days 143 132  
Growing Degree Days 20 (Base 50)    
Moisture  
Dew Point 66 °F    
Average Humidity 81    
Maximum Humidity 93    
Minimum Humidity 69    
Precipitation  
Precipitation 0.00 in 0.13 in 3.41 in (1911)
Month to date precipitation 4.41 3.93  
Year to date precipitation 20.23 19.43  
Sea Level Pressure  
Sea Level Pressure 30.15 in    
Wind  
Wind Speed 8 mph (SE)    
Max Wind Speed 17 mph    
Max Gust Speed 23 mph    
Visibility 9 miles    
Events      
T = Trace of Precipitation, MM = Missing Value Source: NWS Daily Summary

Daily Weather History Graph

Daily Weather History Graph

Search for Another Location

Airport:

Trip Planner

Search our weather history database for the weather conditions in past years. The results will help you decide how hot, cold, wet, or windy it might be!

Date:

Astronomy

Apr. 27, 2013 Rise Set
Actual Time 6:08 AM CDT 7:24 PM CDT
Civil Twilight 5:43 AM CDT 7:49 PM CDT
Nautical Twilight 5:13 AM CDT 8:19 PM CDT
Astronomical Twilight 4:42 AM CDT 8:51 PM CDT
Moon 9:45 PM CDT (4/27) 7:33 AM CDT (4/27)
Length of Visible Light 14h 06m
Length of Day
13h 15m
Waning Gibbous, 95% of the Moon is Illuminated
Apr 27
Waning Gibbous
May 2
Last Quarter
May 9
New
May 17
First Quarter
May 24
Full

Hourly Weather History & Observations

Time (CDT) Temp. Dew Point Humidity Pressure Visibility Wind Dir Wind Speed Gust Speed Precip Events Conditions
12:53 AM 63.0 °F 59.0 °F 87% 30.22 in 10.0 mi ENE 3.5 mph - N/A   Clear
1:53 AM 64.9 °F 60.1 °F 84% 30.22 in 10.0 mi NE 6.9 mph - N/A   Clear
2:53 AM 62.1 °F 59.0 °F 90% 30.19 in 10.0 mi NNE 3.5 mph - 0.01 in   Clear
3:53 AM 61.0 °F 57.9 °F 90% 30.17 in 10.0 mi Calm Calm - N/A   Clear
4:53 AM 62.1 °F 59.0 °F 90% 30.17 in 10.0 mi ENE 5.8 mph - N/A   Clear
5:53 AM 61.0 °F 57.9 °F 90% 30.17 in 10.0 mi NE 3.5 mph - N/A   Clear
6:53 AM 63.0 °F 60.1 °F 90% 30.19 in 10.0 mi East 6.9 mph - 0.01 in   Clear
7:09 AM 64.4 °F 60.8 °F 88% 30.19 in 10.0 mi East 5.8 mph - N/A   Partly Cloudy
7:53 AM 68.0 °F 61.0 °F 78% 30.21 in 10.0 mi ENE 3.5 mph - N/A   Clear
8:53 AM 71.1 °F 62.1 °F 73% 30.22 in 10.0 mi East 8.1 mph - N/A   Mostly Cloudy
9:53 AM 73.9 °F 64.9 °F 73% 30.22 in 10.0 mi ESE 12.7 mph - N/A   Mostly Cloudy
10:53 AM 75.0 °F 66.0 °F 73% 30.23 in 10.0 mi ESE 12.7 mph - N/A   Mostly Cloudy
11:00 AM 75.2 °F 66.2 °F 73% 30.22 in 10.0 mi SE 13.8 mph - N/A   Mostly Cloudy
11:50 AM 73.4 °F 66.2 °F 78% 30.21 in 10.0 mi SE 12.7 mph - N/A   Mostly Cloudy
11:53 AM 73.9 °F 66.0 °F 76% 30.22 in 10.0 mi SE 11.5 mph - N/A   Mostly Cloudy
12:33 PM 75.2 °F 66.2 °F 73% 30.19 in 10.0 mi SE 11.5 mph 19.6 mph N/A   Scattered Clouds
12:53 PM 77.0 °F 66.9 °F 71% 30.19 in 10.0 mi SE 13.8 mph 19.6 mph N/A   Mostly Cloudy
1:24 PM 75.2 °F 66.2 °F 73% 30.18 in 10.0 mi SE 12.7 mph - N/A   Scattered Clouds
1:53 PM 79.0 °F 68.0 °F 69% 30.18 in 10.0 mi SSE 11.5 mph - N/A   Scattered Clouds
2:53 PM 78.1 °F 68.0 °F 71% 30.16 in 10.0 mi South 13.8 mph - N/A   Scattered Clouds
3:02 PM 77.0 °F 66.2 °F 69% 30.15 in 10.0 mi SSE 13.8 mph - N/A   Mostly Cloudy
3:53 PM 75.0 °F 66.9 °F 76% 30.14 in 9.0 mi SSE 10.4 mph - N/A   Overcast
4:30 PM 75.2 °F 68.0 °F 78% 30.12 in 9.0 mi SSE 12.7 mph - N/A   Overcast
4:53 PM 73.9 °F 68.0 °F 82% 30.14 in 8.0 mi SSE 11.5 mph - N/A   Overcast
5:53 PM 73.9 °F 68.0 °F 82% 30.13 in 8.0 mi ESE 5.8 mph - N/A   Overcast
6:06 PM 73.4 °F 68.0 °F 83% 30.12 in 7.0 mi SSE 5.8 mph - N/A   Overcast
6:53 PM 73.0 °F 68.0 °F 84% 30.12 in 8.0 mi SSE 5.8 mph - N/A   Mostly Cloudy
7:19 PM 73.4 °F 69.8 °F 88% 30.11 in 8.0 mi SE 6.9 mph - N/A   Overcast
7:30 PM 71.6 °F 68.0 °F 88% 30.10 in 7.0 mi SE 6.9 mph - N/A   Mostly Cloudy
7:53 PM 72.0 °F 68.0 °F 87% 30.11 in 8.0 mi SE 6.9 mph - N/A   Clear
8:31 PM 71.6 °F 69.8 °F 94% 30.10 in 7.0 mi SSE 8.1 mph - N/A   Scattered Clouds
8:53 PM 71.1 °F 69.1 °F 93% 30.11 in 7.0 mi SSE 8.1 mph - N/A   Partly Cloudy
9:21 PM 71.6 °F 69.8 °F 94% 30.08 in 6.0 mi SE 12.7 mph - N/A   Partly Cloudy
9:53 PM 72.0 °F 69.1 °F 91% 30.08 in 7.0 mi SSE 12.7 mph - N/A   Partly Cloudy
10:27 PM 71.6 °F 69.8 °F 94% 30.09 in 8.0 mi South 10.4 mph - N/A   Mostly Cloudy
10:38 PM 71.6 °F 69.8 °F 94% 30.09 in 8.0 mi South 11.5 mph - N/A   Overcast
10:53 PM 72.0 °F 69.1 °F 91% 30.09 in 8.0 mi South 11.5 mph - N/A   Overcast
11:31 PM 73.4 °F 69.8 °F 88% 30.09 in 9.0 mi South 10.4 mph - N/A   Overcast
11:48 PM 73.4 °F 69.8 °F 88% 30.10 in 8.0 mi South 6.9 mph - N/A   Overcast
11:53 PM 73.0 °F 70.0 °F 90% 30.10 in 8.0 mi South 6.9 mph - N/A   Overcast